カタログに戻る

GITAI-SC1

運用中科学VLEO
NORAD 62388·PAYLOAD·🇺🇸 United States

打ち上げ Dec 21, 2024 から Vandenberg Space Force Base

Loading…

次のパス (今後24時間)

TLE

最新Source: Space-Track

元期: Sep 14, 2026, 04:41 UTC

1 62388U 24247M   26257.19516555  .00003620  00000-0  16711-3 0  9995
2 62388  45.0002 190.0629 0000497 259.5607 100.5218 15.22121661 96291

AllMySatでGITAI-SC1をリアルタイム追跡

Download on the App Store